contact:dominique.lefevre@mio.osupytheas.fr, maurice.libes@osupytheas.fr, didier.mallarino@osupytheas.fr
Project:EMSO http://www.emso-fr.org/EMSO-France
Depth: 2436.0 m
Title:EMSO Ligure Ouest : Data MII capteur CSTAR
DateTime,Latitude,Longitude,Instrument_Serial,Reference_Counts,Signal_Counts,Corrected_Signal_raw_counts,Calculated_Beam_c_inverse_meters,Internal_thermistor_counts
DateTime,Latitude,Longitude,Instrument_Serial,Reference_Counts,Signal_Counts,Corrected_Signal_raw_counts,Calculated_Beam_c_inverse_meters,Internal_thermistor_counts
2024-04-04T00:01:15,42.805,6.029,CST-1368DR,4109,4313,11123,01.357,553
2024-04-04T00:04:17,42.805,6.029,CST-1368DR,4109,4312,11122,01.357,553
2024-04-04T00:07:18,42.805,6.029,CST-1368DR,4109,4314,11127,01.356,553
2024-04-04T00:10:20,42.805,6.029,CST-1368DR,4109,4313,11123,01.357,553
2024-04-04T00:13:21,42.805,6.029,CST-1368DR,4109,4313,11124,01.357,553
2024-04-04T00:16:23,42.805,6.029,CST-1368DR,4109,4314,11126,01.356,553
2024-04-04T00:19:24,42.805,6.029,CST-1368DR,4109,4312,11122,01.357,553
2024-04-04T00:22:26,42.805,6.029,CST-1368DR,4109,4313,11123,01.357,553
2024-04-04T00:25:28,42.805,6.029,CST-1368DR,4108,4314,11127,01.356,553
2024-04-04T00:28:29,42.805,6.029,CST-1368DR,4109,4313,11124,01.357,553
2024-04-04T00:31:31,42.805,6.029,CST-1368DR,4109,4314,11125,01.356,553
2024-04-04T00:34:32,42.805,6.029,CST-1368DR,4109,4314,11125,01.356,553
2024-04-04T00:37:34,42.805,6.029,CST-1368DR,4109,4313,11124,01.357,553
2024-04-04T00:40:36,42.805,6.029,CST-1368DR,4108,4314,11127,01.356,553
2024-04-04T00:43:37,42.805,6.029,CST-1368DR,4109,4314,11127,01.356,553
2024-04-04T00:46:39,42.805,6.029,CST-1368DR,4109,4315,11127,01.356,553
2024-04-04T00:49:40,42.805,6.029,CST-1368DR,4109,4314,11127,01.356,553
2024-04-04T00:52:42,42.805,6.029,CST-1368DR,4108,4314,11129,01.355,553
2024-04-04T00:55:43,42.805,6.029,CST-1368DR,4109,4313,11124,01.357,553
2024-04-04T00:58:45,42.805,6.029,CST-1368DR,4109,4315,11128,01.355,553
2024-04-04T01:01:47,42.805,6.029,CST-1368DR,4109,4315,11127,01.356,553
2024-04-04T01:04:48,42.805,6.029,CST-1368DR,4108,4314,11129,01.355,553
2024-04-04T01:07:50,42.805,6.029,CST-1368DR,4109,4315,11128,01.355,553
2024-04-04T01:10:51,42.805,6.029,CST-1368DR,4109,4314,11127,01.356,553
2024-04-04T01:13:53,42.805,6.029,CST-1368DR,4108,4311,11120,01.358,553
2024-04-04T01:16:55,42.805,6.029,CST-1368DR,4108,4315,11132,01.354,553
2024-04-04T01:19:56,42.805,6.029,CST-1368DR,4109,4315,11128,01.355,553
2024-04-04T01:22:58,42.805,6.029,CST-1368DR,4108,4316,11135,01.353,553
2024-04-04T01:25:59,42.805,6.029,CST-1368DR,4109,4316,11131,01.354,553
2024-04-04T01:29:01,42.805,6.029,CST-1368DR,4108,4315,11132,01.354,553
2024-04-04T01:32:02,42.805,6.029,CST-1368DR,4109,4316,11132,01.354,553
2024-04-04T01:35:04,42.805,6.029,CST-1368DR,4108,4316,11135,01.353,553
2024-04-04T01:38:06,42.805,6.029,CST-1368DR,4108,4317,11136,01.352,553
2024-04-04T01:41:07,42.805,6.029,CST-1368DR,4108,4316,11133,01.354,553
2024-04-04T01:44:09,42.805,6.029,CST-1368DR,4108,4315,11131,01.354,553
2024-04-04T01:47:10,42.805,6.029,CST-1368DR,4108,4313,11127,01.356,553
2024-04-04T01:50:12,42.805,6.029,CST-1368DR,4108,4316,11133,01.354,553
2024-04-04T01:53:13,42.805,6.029,CST-1368DR,4108,4316,11135,01.353,553
2024-04-04T01:56:15,42.805,6.029,CST-1368DR,4108,4316,11133,01.354,553
2024-04-04T01:59:17,42.805,6.029,CST-1368DR,4108,4317,11136,01.352,553
2024-04-04T02:02:18,42.805,6.029,CST-1368DR,4108,4316,11135,01.353,553
2024-04-04T02:05:20,42.805,6.029,CST-1368DR,4108,4317,11136,01.352,553
2024-04-04T02:08:21,42.805,6.029,CST-1368DR,4108,4316,11133,01.354,553
2024-04-04T02:11:23,42.805,6.029,CST-1368DR,4108,4316,11133,01.354,553
2024-04-04T02:14:25,42.805,6.029,CST-1368DR,4108,4317,11137,01.352,553
2024-04-04T02:17:26,42.805,6.029,CST-1368DR,4108,4317,11136,01.352,553
2024-04-04T02:20:28,42.805,6.029,CST-1368DR,4108,4317,11135,01.353,553
2024-04-04T02:23:29,42.805,6.029,CST-1368DR,4108,4317,11136,01.352,553
2024-04-04T02:26:31,42.805,6.029,CST-1368DR,4108,4317,11136,01.352,553
2024-04-04T02:29:32,42.805,6.029,CST-1368DR,4108,4317,11137,01.352,553
2024-04-04T02:32:34,42.805,6.029,CST-1368DR,4108,4317,11136,01.352,553
2024-04-04T02:35:36,42.805,6.029,CST-1368DR,4108,4315,11132,01.354,553
2024-04-04T02:38:37,42.805,6.029,CST-1368DR,4108,4317,11137,01.352,553
2024-04-04T02:41:39,42.805,6.029,CST-1368DR,4108,4316,11133,01.354,553
2024-04-04T02:44:40,42.805,6.029,CST-1368DR,4108,4317,11135,01.353,553
2024-04-04T02:47:42,42.805,6.029,CST-1368DR,4108,4317,11136,01.352,553
2024-04-04T02:50:43,42.805,6.029,CST-1368DR,4108,4317,11135,01.353,553
2024-04-04T02:53:45,42.805,6.029,CST-1368DR,4108,4317,11136,01.352,553
2024-04-04T02:56:47,42.805,6.029,CST-1368DR,4108,4317,11135,01.353,553
2024-04-04T02:59:48,42.805,6.029,CST-1368DR,4108,4317,11136,01.352,553
2024-04-04T03:02:50,42.805,6.029,CST-1368DR,4108,4317,11137,01.352,553
2024-04-04T03:05:51,42.805,6.029,CST-1368DR,4108,4316,11135,01.353,553
2024-04-04T03:08:53,42.805,6.029,CST-1368DR,4108,4317,11136,01.352,553
2024-04-04T03:11:55,42.805,6.029,CST-1368DR,4108,4317,11135,01.353,553
2024-04-04T03:14:56,42.805,6.029,CST-1368DR,4108,4315,11131,01.354,553
2024-04-04T03:17:58,42.805,6.029,CST-1368DR,4108,4317,11135,01.353,553
2024-04-04T03:20:59,42.805,6.029,CST-1368DR,4108,4316,11133,01.354,553
2024-04-04T03:24:01,42.805,6.029,CST-1368DR,4108,4317,11136,01.352,553
2024-04-04T03:27:02,42.805,6.029,CST-1368DR,4108,4316,11135,01.353,553
2024-04-04T03:30:04,42.805,6.029,CST-1368DR,4108,4317,11135,01.353,553
2024-04-04T03:33:06,42.805,6.029,CST-1368DR,4108,4316,11133,01.354,553
2024-04-04T03:36:07,42.805,6.029,CST-1368DR,4108,4317,11136,01.352,553
2024-04-04T03:39:09,42.805,6.029,CST-1368DR,4108,4317,11136,01.352,553
2024-04-04T03:42:10,42.805,6.029,CST-1368DR,4108,4316,11135,01.353,553
2024-04-04T03:45:12,42.805,6.029,CST-1368DR,4108,4316,11133,01.354,553
2024-04-04T03:48:13,42.805,6.029,CST-1368DR,4108,4315,11131,01.354,553
2024-04-04T03:51:15,42.805,6.029,CST-1368DR,4108,4316,11135,01.353,553
2024-04-04T03:54:17,42.805,6.029,CST-1368DR,4108,4315,11131,01.354,553
2024-04-04T03:57:18,42.805,6.029,CST-1368DR,4108,4315,11131,01.354,553
2024-04-04T04:00:20,42.805,6.029,CST-1368DR,4108,4316,11133,01.354,553
2024-04-04T04:03:21,42.805,6.029,CST-1368DR,4108,4315,11130,01.355,553
2024-04-04T04:06:23,42.805,6.029,CST-1368DR,4108,4316,11135,01.353,553
2024-04-04T04:09:24,42.805,6.029,CST-1368DR,4108,4316,11133,01.354,553
2024-04-04T04:12:26,42.805,6.029,CST-1368DR,4108,4316,11133,01.354,553
2024-04-04T04:15:28,42.805,6.029,CST-1368DR,4108,4316,11133,01.354,553
2024-04-04T04:18:29,42.805,6.029,CST-1368DR,4108,4316,11133,01.354,553
2024-04-04T04:21:31,42.805,6.029,CST-1368DR,4108,4315,11132,01.354,553
2024-04-04T04:24:32,42.805,6.029,CST-1368DR,4108,4315,11132,01.354,553
2024-04-04T04:27:34,42.805,6.029,CST-1368DR,4108,4317,11135,01.353,553
2024-04-04T04:30:36,42.805,6.029,CST-1368DR,4108,4317,11136,01.352,553
2024-04-04T04:33:37,42.805,6.029,CST-1368DR,4108,4316,11133,01.354,553
2024-04-04T04:36:39,42.805,6.029,CST-1368DR,4108,4315,11132,01.354,553
2024-04-04T04:39:40,42.805,6.029,CST-1368DR,4108,4316,11133,01.354,553
2024-04-04T04:42:42,42.805,6.029,CST-1368DR,4108,4316,11133,01.354,553
2024-04-04T04:45:43,42.805,6.029,CST-1368DR,4108,4315,11132,01.354,553
2024-04-04T04:48:45,42.805,6.029,CST-1368DR,4108,4316,11133,01.354,553
2024-04-04T04:51:47,42.805,6.029,CST-1368DR,4108,4316,11133,01.354,553
2024-04-04T04:54:48,42.805,6.029,CST-1368DR,4108,4315,11130,01.355,553
2024-04-04T04:57:50,42.805,6.029,CST-1368DR,4108,4316,11133,01.354,553
2024-04-04T05:00:51,42.805,6.029,CST-1368DR,4108,4316,11133,01.354,553
2024-04-04T05:03:53,42.805,6.029,CST-1368DR,4108,4315,11131,01.354,553
2024-04-04T05:06:54,42.805,6.029,CST-1368DR,4108,4314,11129,01.355,553
2024-04-04T05:09:56,42.805,6.029,CST-1368DR,4108,4316,11135,01.353,553
2024-04-04T05:12:58,42.805,6.029,CST-1368DR,4108,4317,11135,01.353,553
2024-04-04T05:15:59,42.805,6.029,CST-1368DR,4108,4317,11136,01.352,553
2024-04-04T05:19:01,42.805,6.029,CST-1368DR,4108,4316,11133,01.354,553
2024-04-04T05:22:02,42.805,6.029,CST-1368DR,4108,4308,11114,01.360,553
2024-04-04T05:25:04,42.805,6.029,CST-1368DR,4108,4316,11133,01.354,553
2024-04-04T05:28:06,42.805,6.029,CST-1368DR,4108,4315,11132,01.354,553
2024-04-04T05:31:07,42.805,6.029,CST-1368DR,4108,4317,11136,01.352,553
2024-04-04T05:34:09,42.805,6.029,CST-1368DR,4108,4317,11135,01.353,553
2024-04-04T05:37:10,42.805,6.029,CST-1368DR,4108,4317,11136,01.352,553
2024-04-04T05:40:12,42.805,6.029,CST-1368DR,4108,4317,11136,01.352,553
2024-04-04T05:43:13,42.805,6.029,CST-1368DR,4108,4317,11136,01.352,553
2024-04-04T05:46:15,42.805,6.029,CST-1368DR,4108,4315,11131,01.354,553
2024-04-04T05:49:17,42.805,6.029,CST-1368DR,4108,4316,11133,01.354,553
2024-04-04T05:52:18,42.805,6.029,CST-1368DR,4108,4317,11135,01.353,553
2024-04-04T05:55:20,42.805,6.029,CST-1368DR,4108,4316,11133,01.354,553
2024-04-04T05:58:21,42.805,6.029,CST-1368DR,4108,4316,11135,01.353,553
2024-04-04T06:01:23,42.805,6.029,CST-1368DR,4108,4317,11136,01.352,553
2024-04-04T06:04:24,42.805,6.029,CST-1368DR,4108,4317,11136,01.352,553
2024-04-04T06:07:26,42.805,6.029,CST-1368DR,4108,4316,11135,01.353,553
2024-04-04T06:10:28,42.805,6.029,CST-1368DR,4108,4317,11136,01.352,553
2024-04-04T06:13:29,42.805,6.029,CST-1368DR,4108,4317,11136,01.352,553
2024-04-04T06:16:31,42.805,6.029,CST-1368DR,4108,4315,11131,01.354,553
2024-04-04T06:19:32,42.805,6.029,CST-1368DR,4108,4316,11135,01.353,553
2024-04-04T06:22:34,42.805,6.029,CST-1368DR,4108,4316,11135,01.353,553
2024-04-04T06:25:36,42.805,6.029,CST-1368DR,4108,4317,11136,01.352,553
2024-04-04T06:28:37,42.805,6.029,CST-1368DR,4108,4317,11136,01.352,553
2024-04-04T06:31:39,42.805,6.029,CST-1368DR,4108,4316,11133,01.354,553
2024-04-04T06:34:40,42.805,6.029,CST-1368DR,4108,4316,11133,01.354,553
2024-04-04T06:37:42,42.805,6.029,CST-1368DR,4108,4315,11132,01.354,553
2024-04-04T06:40:43,42.805,6.029,CST-1368DR,4108,4316,11133,01.354,553
2024-04-04T06:43:45,42.805,6.029,CST-1368DR,4108,4316,11133,01.354,553
2024-04-04T06:46:47,42.805,6.029,CST-1368DR,4108,4317,11135,01.353,553
2024-04-04T06:49:48,42.805,6.029,CST-1368DR,4108,4316,11133,01.354,553
2024-04-04T06:52:50,42.805,6.029,CST-1368DR,4108,4316,11133,01.354,553
2024-04-04T06:55:51,42.805,6.029,CST-1368DR,4108,4314,11129,01.355,553
2024-04-04T06:58:53,42.805,6.029,CST-1368DR,4108,4316,11135,01.353,553
2024-04-04T07:01:54,42.805,6.029,CST-1368DR,4108,4315,11131,01.354,553
2024-04-04T07:04:56,42.805,6.029,CST-1368DR,4108,4316,11135,01.353,553
2024-04-04T07:07:58,42.805,6.029,CST-1368DR,4108,4315,11131,01.354,553
2024-04-04T07:10:59,42.805,6.029,CST-1368DR,4108,4316,11135,01.353,553
2024-04-04T07:14:01,42.805,6.029,CST-1368DR,4108,4316,11133,01.354,553
2024-04-04T07:17:02,42.805,6.029,CST-1368DR,4108,4315,11131,01.354,553
2024-04-04T07:20:04,42.805,6.029,CST-1368DR,4108,4315,11131,01.354,553
2024-04-04T07:23:06,42.805,6.029,CST-1368DR,4108,4316,11133,01.354,553
2024-04-04T07:26:07,42.805,6.029,CST-1368DR,4108,4315,11132,01.354,553
2024-04-04T07:29:09,42.805,6.029,CST-1368DR,4108,4313,11127,01.356,553
2024-04-04T07:32:10,42.805,6.029,CST-1368DR,4108,4316,11133,01.354,553
2024-04-04T07:35:12,42.805,6.029,CST-1368DR,4108,4315,11131,01.354,553
2024-04-04T07:38:13,42.805,6.029,CST-1368DR,4108,4314,11129,01.355,553
2024-04-04T07:41:15,42.805,6.029,CST-1368DR,4108,4316,11133,01.354,553
2024-04-04T07:44:17,42.805,6.029,CST-1368DR,4108,4315,11132,01.354,553
2024-04-04T07:47:18,42.805,6.029,CST-1368DR,4108,4315,11131,01.354,553
2024-04-04T07:50:20,42.805,6.029,CST-1368DR,4108,4316,11133,01.354,553
2024-04-04T07:53:21,42.805,6.029,CST-1368DR,4108,4315,11131,01.354,553
2024-04-04T07:56:23,42.805,6.029,CST-1368DR,4108,4315,11132,01.354,553
2024-04-04T07:59:24,42.805,6.029,CST-1368DR,4108,4315,11132,01.354,553
2024-04-04T08:02:26,42.805,6.029,CST-1368DR,4108,4316,11133,01.354,553
2024-04-04T08:05:28,42.805,6.029,CST-1368DR,4108,4315,11131,01.354,553
2024-04-04T08:08:29,42.805,6.029,CST-1368DR,4108,4316,11133,01.354,553
2024-04-04T08:11:31,42.805,6.029,CST-1368DR,4108,4313,11126,01.356,553
2024-04-04T08:14:32,42.805,6.029,CST-1368DR,4108,4315,11130,01.355,553
2024-04-04T08:17:34,42.805,6.029,CST-1368DR,4108,4315,11132,01.354,553
2024-04-04T08:20:36,42.805,6.029,CST-1368DR,4108,4315,11131,01.354,553
2024-04-04T08:23:37,42.805,6.029,CST-1368DR,4108,4314,11129,01.355,553
2024-04-04T08:26:39,42.805,6.029,CST-1368DR,4108,4315,11131,01.354,553
2024-04-04T08:29:40,42.805,6.029,CST-1368DR,4108,4315,11131,01.354,553
2024-04-04T08:32:42,42.805,6.029,CST-1368DR,4108,4315,11130,01.355,553
2024-04-04T08:35:43,42.805,6.029,CST-1368DR,4108,4315,11131,01.354,553
2024-04-04T08:38:45,42.805,6.029,CST-1368DR,4108,4315,11131,01.354,553
2024-04-04T08:41:47,42.805,6.029,CST-1368DR,4108,4315,11130,01.355,553
2024-04-04T08:44:48,42.805,6.029,CST-1368DR,4108,4315,11131,01.354,553
2024-04-04T08:47:50,42.805,6.029,CST-1368DR,4108,4315,11131,01.354,553
2024-04-04T08:50:51,42.805,6.029,CST-1368DR,4108,4315,11131,01.354,553
2024-04-04T08:53:53,42.805,6.029,CST-1368DR,4108,4316,11133,01.354,553
2024-04-04T08:56:54,42.805,6.029,CST-1368DR,4108,4315,11131,01.354,553
2024-04-04T08:59:56,42.805,6.029,CST-1368DR,4108,4314,11129,01.355,553
2024-04-04T09:02:58,42.805,6.029,CST-1368DR,4108,4308,11114,01.360,553
2024-04-04T09:05:59,42.805,6.029,CST-1368DR,4108,4305,11104,01.364,553
2024-04-04T09:09:01,42.805,6.029,CST-1368DR,4108,4307,11109,01.362,553
2024-04-04T09:12:02,42.805,6.029,CST-1368DR,4107,4305,11107,01.363,553
2024-04-04T09:15:04,42.805,6.029,CST-1368DR,4108,4309,11115,01.360,553
2024-04-04T09:18:06,42.805,6.029,CST-1368DR,4108,4311,11121,01.358,553
2024-04-04T09:21:07,42.805,6.029,CST-1368DR,4108,4312,11123,01.357,553
2024-04-04T09:24:09,42.805,6.029,CST-1368DR,4108,4314,11127,01.356,553
2024-04-04T09:27:10,42.805,6.029,CST-1368DR,4108,4313,11127,01.356,553
2024-04-04T09:30:12,42.805,6.029,CST-1368DR,4108,4313,11126,01.356,553
2024-04-04T09:33:13,42.805,6.029,CST-1368DR,4108,4313,11126,01.356,553
2024-04-04T09:36:15,42.805,6.029,CST-1368DR,4108,4313,11126,01.356,553
2024-04-04T09:39:17,42.805,6.029,CST-1368DR,4108,4313,11127,01.356,553
2024-04-04T09:42:18,42.805,6.029,CST-1368DR,4108,4313,11127,01.356,553
2024-04-04T09:45:20,42.805,6.029,CST-1368DR,4108,4314,11128,01.355,553
2024-04-04T09:48:21,42.805,6.029,CST-1368DR,4108,4312,11124,01.357,553
2024-04-04T09:51:23,42.805,6.029,CST-1368DR,4108,4313,11126,01.356,553
2024-04-04T09:54:24,42.805,6.029,CST-1368DR,4108,4312,11124,01.357,553
2024-04-04T09:57:26,42.805,6.029,CST-1368DR,4108,4311,11122,01.357,553
2024-04-04T10:00:28,42.805,6.029,CST-1368DR,4107,4313,11129,01.355,553
2024-04-04T10:03:29,42.805,6.029,CST-1368DR,4107,4313,11128,01.355,553
2024-04-04T10:06:31,42.805,6.029,CST-1368DR,4107,4313,11129,01.355,553
2024-04-04T10:09:32,42.805,6.029,CST-1368DR,4107,4314,11130,01.355,553
2024-04-04T10:12:34,42.805,6.029,CST-1368DR,4107,4313,11129,01.355,553
2024-04-04T10:15:35,42.805,6.029,CST-1368DR,4107,4313,11129,01.355,553
2024-04-04T10:18:37,42.805,6.029,CST-1368DR,4107,4313,11129,01.355,553
2024-04-04T10:21:39,42.805,6.029,CST-1368DR,4107,4314,11130,01.355,553
2024-04-04T10:24:40,42.805,6.029,CST-1368DR,4107,4313,11129,01.355,553
2024-04-04T10:27:42,42.805,6.029,CST-1368DR,4107,4312,11126,01.356,553
2024-04-04T10:30:43,42.805,6.029,CST-1368DR,4107,4314,11130,01.355,553
2024-04-04T10:33:45,42.805,6.029,CST-1368DR,4107,4313,11128,01.355,553
2024-04-04T10:36:47,42.805,6.029,CST-1368DR,4107,4313,11129,01.355,553
2024-04-04T10:39:48,42.805,6.029,CST-1368DR,4107,4311,11124,01.357,553
2024-04-04T10:42:50,42.805,6.029,CST-1368DR,4107,4314,11130,01.355,553
2024-04-04T10:45:51,42.805,6.029,CST-1368DR,4107,4313,11129,01.355,553
2024-04-04T10:48:53,42.805,6.029,CST-1368DR,4107,4312,11127,01.356,553
2024-04-04T10:51:54,42.805,6.029,CST-1368DR,4107,4312,11126,01.356,553
2024-04-04T10:54:56,42.805,6.029,CST-1368DR,4107,4313,11128,01.355,553
2024-04-04T10:57:58,42.805,6.029,CST-1368DR,4107,4313,11129,01.355,553
2024-04-04T11:00:59,42.805,6.029,CST-1368DR,4107,4313,11128,01.355,553
2024-04-04T11:04:01,42.805,6.029,CST-1368DR,4107,4313,11129,01.355,553
2024-04-04T11:07:02,42.805,6.029,CST-1368DR,4107,4313,11129,01.355,553
2024-04-04T11:10:04,42.805,6.029,CST-1368DR,4107,4313,11129,01.355,553
2024-04-04T11:13:05,42.805,6.029,CST-1368DR,4107,4314,11130,01.355,553
2024-04-04T11:16:07,42.805,6.029,CST-1368DR,4107,4313,11129,01.355,553
2024-04-04T11:19:09,42.805,6.029,CST-1368DR,4107,4313,11129,01.355,553
2024-04-04T11:22:10,42.805,6.029,CST-1368DR,4107,4313,11129,01.355,553
2024-04-04T11:25:12,42.805,6.029,CST-1368DR,4107,4314,11130,01.355,553
2024-04-04T11:28:13,42.805,6.029,CST-1368DR,4107,4313,11129,01.355,553
2024-04-04T11:31:15,42.805,6.029,CST-1368DR,4107,4313,11129,01.355,553
2024-04-04T11:34:17,42.805,6.029,CST-1368DR,4107,4313,11129,01.355,553
2024-04-04T11:37:18,42.805,6.029,CST-1368DR,4107,4313,11128,01.355,553
2024-04-04T11:40:20,42.805,6.029,CST-1368DR,4107,4313,11129,01.355,553
2024-04-04T11:43:21,42.805,6.029,CST-1368DR,4107,4313,11129,01.355,553
2024-04-04T11:46:23,42.805,6.029,CST-1368DR,4107,4312,11127,01.356,553
2024-04-04T11:49:24,42.805,6.029,CST-1368DR,4107,4314,11131,01.354,553
2024-04-04T11:52:26,42.805,6.029,CST-1368DR,4107,4314,11131,01.354,553
2024-04-04T11:55:28,42.805,6.029,CST-1368DR,4107,4314,11131,01.354,553
2024-04-04T11:58:29,42.805,6.029,CST-1368DR,4107,4310,11120,01.358,553
2024-04-04T12:01:31,42.805,6.029,CST-1368DR,4107,4314,11130,01.355,553
2024-04-04T12:04:32,42.805,6.029,CST-1368DR,4107,4314,11131,01.354,553
2024-04-04T12:07:34,42.805,6.029,CST-1368DR,4107,4314,11131,01.354,553
2024-04-04T12:10:35,42.805,6.029,CST-1368DR,4107,4314,11132,01.354,553
2024-04-04T12:13:37,42.805,6.029,CST-1368DR,4107,4314,11132,01.354,553
2024-04-04T12:16:39,42.805,6.029,CST-1368DR,4107,4313,11128,01.355,553
2024-04-04T12:19:40,42.805,6.029,CST-1368DR,4107,4314,11131,01.354,553
2024-04-04T12:22:42,42.805,6.029,CST-1368DR,4107,4314,11131,01.354,553
2024-04-04T12:25:43,42.805,6.029,CST-1368DR,4107,4314,11131,01.354,553
2024-04-04T12:28:45,42.805,6.029,CST-1368DR,4107,4311,11124,01.357,553
2024-04-04T12:31:47,42.805,6.029,CST-1368DR,4107,4315,11133,01.354,553
2024-04-04T12:34:48,42.805,6.029,CST-1368DR,4107,4314,11132,01.354,553
2024-04-04T12:37:50,42.805,6.029,CST-1368DR,4107,4313,11129,01.355,553
2024-04-04T12:40:51,42.805,6.029,CST-1368DR,4107,4314,11132,01.354,553
2024-04-04T12:43:53,42.805,6.029,CST-1368DR,4107,4314,11131,01.354,553
2024-04-04T12:46:54,42.805,6.029,CST-1368DR,4107,4314,11131,01.354,553
2024-04-04T12:49:56,42.805,6.029,CST-1368DR,4107,4314,11130,01.355,553
2024-04-04T12:52:58,42.805,6.029,CST-1368DR,4107,4313,11129,01.355,553
2024-04-04T12:55:59,42.805,6.029,CST-1368DR,4107,4313,11129,01.355,553
2024-04-04T12:59:01,42.805,6.029,CST-1368DR,4107,4313,11129,01.355,553
2024-04-04T13:02:02,42.805,6.029,CST-1368DR,4107,4313,11128,01.355,553
2024-04-04T13:05:04,42.805,6.029,CST-1368DR,4107,4313,11129,01.355,553
2024-04-04T13:08:06,42.805,6.029,CST-1368DR,4107,4314,11131,01.354,553
2024-04-04T13:11:07,42.805,6.029,CST-1368DR,4107,4314,11131,01.354,553
2024-04-04T13:14:09,42.805,6.029,CST-1368DR,4107,4313,11129,01.355,553
2024-04-04T13:17:10,42.805,6.029,CST-1368DR,4107,4311,11124,01.357,553
2024-04-04T13:20:12,42.805,6.029,CST-1368DR,4107,4294,11080,01.373,553
2024-04-04T13:23:13,42.805,6.029,CST-1368DR,4107,4313,11128,01.355,553
2024-04-04T13:26:15,42.805,6.029,CST-1368DR,4107,4314,11131,01.354,553
2024-04-04T13:29:17,42.805,6.029,CST-1368DR,4107,4314,11131,01.354,553
2024-04-04T13:32:18,42.805,6.029,CST-1368DR,4107,4313,11129,01.355,553
2024-04-04T13:35:20,42.805,6.029,CST-1368DR,4107,4313,11129,01.355,553
2024-04-04T13:38:21,42.805,6.029,CST-1368DR,4107,4313,11128,01.355,553
2024-04-04T13:41:23,42.805,6.029,CST-1368DR,4107,4310,11122,01.357,553
2024-04-04T13:44:24,42.805,6.029,CST-1368DR,4107,4313,11129,01.355,553
2024-04-04T13:47:26,42.805,6.029,CST-1368DR,4107,4313,11129,01.355,553
2024-04-04T13:50:28,42.805,6.029,CST-1368DR,4107,4314,11130,01.355,553
2024-04-04T13:53:29,42.805,6.029,CST-1368DR,4107,4313,11128,01.355,553
2024-04-04T13:56:31,42.805,6.029,CST-1368DR,4107,4313,11128,01.355,553
2024-04-04T13:59:32,42.805,6.029,CST-1368DR,4107,4313,11129,01.355,553
2024-04-04T14:02:34,42.805,6.029,CST-1368DR,4107,4313,11128,01.355,553
2024-04-04T14:05:36,42.805,6.029,CST-1368DR,4107,4313,11128,01.355,553
2024-04-04T14:08:37,42.805,6.029,CST-1368DR,4107,4313,11129,01.355,553
2024-04-04T14:11:39,42.805,6.029,CST-1368DR,4107,4312,11126,01.356,553
2024-04-04T14:14:40,42.805,6.029,CST-1368DR,4107,4312,11127,01.356,553
2024-04-04T14:17:42,42.805,6.029,CST-1368DR,4107,4313,11128,01.355,553
2024-04-04T14:20:43,42.805,6.029,CST-1368DR,4107,4313,11129,01.355,553
2024-04-04T14:23:45,42.805,6.029,CST-1368DR,4107,4312,11127,01.356,553
2024-04-04T14:26:47,42.805,6.029,CST-1368DR,4107,4314,11130,01.355,553
2024-04-04T14:29:48,42.805,6.029,CST-1368DR,4107,4313,11128,01.355,553
2024-04-04T14:32:50,42.805,6.029,CST-1368DR,4107,4312,11126,01.356,553
2024-04-04T14:35:51,42.805,6.029,CST-1368DR,4107,4313,11128,01.355,553
2024-04-04T14:38:53,42.805,6.029,CST-1368DR,4107,4312,11126,01.356,553
2024-04-04T14:41:54,42.805,6.029,CST-1368DR,4107,4313,11128,01.355,553
2024-04-04T14:44:56,42.805,6.029,CST-1368DR,4107,4312,11126,01.356,553
2024-04-04T14:47:58,42.805,6.029,CST-1368DR,4107,4312,11126,01.356,553
2024-04-04T14:50:59,42.805,6.029,CST-1368DR,4107,4312,11125,01.356,553
2024-04-04T14:54:01,42.805,6.029,CST-1368DR,4107,4312,11125,01.356,553
2024-04-04T14:57:02,42.805,6.029,CST-1368DR,4107,4312,11125,01.356,553
2024-04-04T15:00:04,42.805,6.029,CST-1368DR,4107,4311,11123,01.357,553
2024-04-04T15:03:05,42.805,6.029,CST-1368DR,4107,4312,11126,01.356,553
2024-04-04T15:06:07,42.805,6.029,CST-1368DR,4107,4311,11124,01.357,553
2024-04-04T15:09:09,42.805,6.029,CST-1368DR,4107,4311,11122,01.357,553
2024-04-04T15:12:10,42.805,6.029,CST-1368DR,4107,4308,11117,01.359,553
2024-04-04T15:15:12,42.805,6.029,CST-1368DR,4107,4311,11124,01.357,553
2024-04-04T15:18:13,42.805,6.029,CST-1368DR,4107,4311,11124,01.357,553
2024-04-04T15:21:15,42.805,6.029,CST-1368DR,4107,4309,11118,01.359,553
2024-04-04T15:24:17,42.805,6.029,CST-1368DR,4107,4311,11123,01.357,553
2024-04-04T15:27:18,42.805,6.029,CST-1368DR,4107,4310,11122,01.357,553
2024-04-04T15:30:20,42.805,6.029,CST-1368DR,4107,4311,11124,01.357,553
2024-04-04T15:33:21,42.805,6.029,CST-1368DR,4107,4311,11123,01.357,553
2024-04-04T15:36:23,42.805,6.029,CST-1368DR,4107,4311,11122,01.357,553
2024-04-04T15:39:24,42.805,6.029,CST-1368DR,4107,4310,11120,01.358,553
2024-04-04T15:42:26,42.805,6.029,CST-1368DR,4107,4310,11121,01.358,553
2024-04-04T15:45:28,42.805,6.029,CST-1368DR,4107,4312,11125,01.356,553
2024-04-04T15:48:29,42.805,6.029,CST-1368DR,4107,4308,11117,01.359,553
2024-04-04T15:51:31,42.805,6.029,CST-1368DR,4107,4309,11118,01.359,553
2024-04-04T15:54:32,42.805,6.029,CST-1368DR,4107,4309,11118,01.359,553
2024-04-04T15:57:34,42.805,6.029,CST-1368DR,4107,4310,11121,01.358,553
2024-04-04T16:00:36,42.805,6.029,CST-1368DR,4107,4310,11120,01.358,553
2024-04-04T16:03:37,42.805,6.029,CST-1368DR,4107,4311,11124,01.357,553
2024-04-04T16:06:39,42.805,6.029,CST-1368DR,4107,4312,11126,01.356,553
2024-04-04T16:09:40,42.805,6.029,CST-1368DR,4107,4311,11122,01.357,553
2024-04-04T16:12:42,42.805,6.029,CST-1368DR,4107,4309,11117,01.359,553
2024-04-04T16:15:43,42.805,6.029,CST-1368DR,4107,4310,11120,01.358,553
2024-04-04T16:18:45,42.805,6.029,CST-1368DR,4107,4310,11122,01.357,553
2024-04-04T16:21:47,42.805,6.029,CST-1368DR,4107,4309,11118,01.359,553
2024-04-04T16:24:48,42.805,6.029,CST-1368DR,4107,4310,11120,01.358,553
2024-04-04T16:27:50,42.805,6.029,CST-1368DR,4107,4312,11127,01.356,553
2024-04-04T16:30:51,42.805,6.029,CST-1368DR,4107,4310,11120,01.358,553
2024-04-04T16:33:53,42.805,6.029,CST-1368DR,4107,4310,11120,01.358,553
2024-04-04T16:36:54,42.805,6.029,CST-1368DR,4107,4311,11122,01.357,553